Weather in Kumasi

Ghana     6°42′42″N   1°38′17″W
temp.,
°C
wind,
m/s
gust,
m/s
humid.,
%
clouds,
%
prec.,
mm/h
press.,
hPa
HPBL,
m
7 august, sun
sun700:00+21s25852 0.0 1014152
03:00+19ssw259510 0.0 1013155
06:00+19ssw239725 0.0 1014113
09:00+24ssw227524 0.0 1015568
12:00+29s215824 0.0 10131291
15:00+30s225170 0.0 10101065
18:00+27sse226177 0.0 101025
21:00+24sw267583 0.0 1013247
8 august, mon
mon800:00+21s378740 0.0 1013268
03:00+19ssw2793100 0.0 1013355
06:00+19ssw2696100 0.0 1014224
09:00+23sw458195 0.1 1015740
12:00+26sw446691 0.1 10141102
15:00+27sw336270 0.1 10121222
18:00+24sw237825 0.1 1013170
21:00+23sw2678100 0.0 1014181
9 august, tue
tue900:00+23ssw278089 0.0 1013316
03:00+20ssw3991100 0.0 1012386
06:00+19ssw2597100 0.0 1014203
09:00+24sw3577100 0.0 1015802
12:00+27sw336584 0.1 10141219
15:00+29sw235781 0.0 10111480
18:00+25wsw2471100 0.1 1012125
21:00+23ssw3879100 0.1 1014429
10 august, wed
wed1000:00+21sw26849 0.1 1015287
03:00+20ssw2692100 0.0 1013207
06:00+19sw2396100 0.0 1015111
09:00+24sw357455 0.0 1016856
12:00+28sw335979 0.0 10141394
15:00+26sw356983 0.1 1013650
18:00+24wsw267897 0.1 1013264
21:00+23ssw2678100 0.0 1015258
11 august, thu
thu1100:00+23sw278298 0.0 1015441
03:00+20ssw2494100 0.0 1014162
06:00+19sw1296100 0.0 101570
09:00+24sw357494 0.0 1017736
12:00+28sw335896 0.0 10151418
15:00+28ssw335999 0.0 10121301
18:00+25ssw367568 0.1 1013318
21:00+23sw2580100 0.0 1014139